SES-1

Last updated on Mon Nov 03 2025 00:02:56 GMT+0000 (Coordinated Universal Time)

1 36516U 10016A 25306.48139644 -.00000102 00000+0 00000+0 0 9996 2 36516 0.0228 295.0658 0002762 293.6494 245.6285 1.00271145 56761
UTC large
Height (km)
Speed (km/s)
/
Latitude / Longitude
Inclination (degrees)
Orbital Period (minutes)
Azimuth
Elevation
Range (km)
Doppler Factor

Next 0 passes for location: London (51.5072 / 0.1276)

Sorry there are no passes over London.